User: anonymous   Login
Location: Cronhütte
(48.9135°N, 9.6869°E)
Time: 14:15:55
(UTC+00:00)
Language:

Meteor 1-24 Rocket - Orbit

View from above orbital plane
View from above orbital plane
View from above satellite
View from above satellite

Ground track
Ground track

The orbit data is extracted from the following two-line orbital elements,

1 08800U 76032B   24195.79601691  .00000039  00000-0  13877-4 0  9996
2 08800  81.2485 223.4842 0095211  69.6614 291.4756 14.10415407482118
Epoch (UTC): 13 July 2024 19:06:15
Eccentricity: 0.0095211
inclination: 81.2485°
perigee height: 789 km
apogee height: 927 km
right ascension of ascending node: 223.4842°
argument of perigee: 69.6614°
revolutions per day: 14.10415407
mean anomaly at epoch: 291.4756°
orbit number at epoch: 48211

The dashed part of the orbit path shows where the satellite is in the earth's shadow,  

DLR